Location: Bishop�s Knoyle
(51.0728°N, 2.1714°W)
Time: 22:08:22
(UTC+00:00)

N. Korean satellite - Pass Details

Date: 04 October 2021
Orbit: 450 x 494 km, 97.3° (Epoch: 28 October)

Event Time Altitude Azimuth Distance (km) Brightness Sun altitude
Rises 05:31:13 0° 14° (NNE) 2,559 10.5 -7.6°
Reaches altitude 10° 05:33:17 10° 15° (NNE) 1,680 9.5 -7.2°
Maximum altitude 05:36:54 79° 102° (ESE) 506 6.8 -6.7°
Drops below altitude 10° 05:40:33 10° 190° (S) 1,686 9.2 -6.1°
Sets 05:42:37 0° 192° (SSW) 2,567 10.1 -5.8°
